Theta_e
284 282 283 285 286 285 285 285 285 283 283 281 282 283 284 283 283 282 286 284 284 286 285 285 284 285 284 283 282 282 281 281 281 280 281 281 281 281 281 281 282 282 282 282 282 282 283 283 282 282 281 281 281 281 281 280 280 279 279 278 278 277 277 277 277 277 277 277 276 276 275 275 274 274 273 272 272 271 271 271 271 271 270 270 270 269 269
287 284 284 284 285 284 284 284 285 286 284 283 284 284 284 283 285 286 285 282 283 284 282 285 285 284 282 280 281 281 282 281 281 281 281 281 281 281 281 282 282 282 282 281 281 281 281 282 282 282 282 281 281 281 280 280 280 280 278 278 278 277 277 277 277 277 276 276 276 275 274 273 273 272 271 271 270 270 270 269 269 269 269 269 269 268 268
286 284 283 283 284 285 284 284 283 283 281 282 283 284 284 283 283 284 283 282 283 284 282 283 283 283 282 281 281 281 281 281 281 281 281 281 281 281 282 282 281 281 281 281 280 280 281 281 282 282 282 282 281 281 281 280 280 279 279 278 278 278 278 278 277 276 276 275 274 274 273 272 270 269 270 269 268 268 268 268 268 268 268 268 267 267 267
284 283 283 282 282 282 281 282 284 280 281 280 281 280 283 283 282 283 282 281 283 283 282 283 281 280 281 281 282 280 281 281 281 281 281 281 281 281 281 281 281 281 280 280 280 280 280 281 281 282 282 282 281 280 281 280 280 279 278 278 278 278 278 277 276 276 275 274 273 272 270 269 268 268 267 266 267 267 266 266 266 267 266 266 266 266 266
283 279 282 281 280 282 281 282 284 283 285 286 281 284 283 285 286 282 280 283 286 282 282 282 281 280 281 281 281 282 281 280 280 281 281 281 281 281 281 281 281 281 281 281 281 280 280 280 281 281 282 281 280 281 280 281 279 278 278 278 278 278 277 276 275 275 274 273 271 269 268 267 267 266 265 266 265 265 264 265 265 265 266 265 265 265 265
278 273 278 280 280 275 278 284 287 288 285 285 281 281 282 283 285 284 284 283 279 279 280 282 282 280 279 281 282 282 282 281 280 280 280 281 281 281 281 281 281 281 280 280 280 280 280 280 281 281 280 280 281 281 281 279 278 278 278 277 277 277 276 275 274 274 272 271 269 268 266 266 266 265 264 264 265 265 264 265 265 264 264 264 264 264 264
275 276 279 277 272 277 282 276 277 276 283 286 285 285 284 283 283 280 278 277 278 281 283 284 284 283 280 277 278 279 280 281 280 279 280 280 280 281 281 280 279 279 279 279 279 278 279 279 279 279 279 279 279 278 279 278 278 277 277 277 276 276 275 274 272 271 271 269 268 266 265 264 264 264 264 264 264 264 263 264 264 263 263 262 262 262 262
275 273 277 271 275 279 277 277 276 277 279 280 281 280 282 282 282 282 282 282 282 283 282 281 280 279 278 276 276 278 278 279 280 279 280 280 280 280 281 280 280 279 278 278 278 278 279 278 278 278 279 278 278 278 276 278 276 277 276 275 275 274 273 272 271 270 269 268 266 265 265 264 263 264 264 263 262 263 262 263 263 263 262 262 262 261 262
275 276 275 278 281 280 278 273 275 277 279 278 279 275 278 283 281 280 281 283 283 282 281 279 275 275 275 276 279 277 278 278 279 281 281 281 280 281 281 280 280 280 279 279 279 278 277 278 277 277 277 277 277 275 275 275 274 274 274 273 274 273 272 271 270 269 268 267 265 264 263 263 262 262 263 262 262 262 261 262 262 261 261 261 261 261 260
281 275 274 272 274 274 280 279 276 280 280 282 281 280 276 276 276 281 282 282 283 282 278 275 274 275 275 273 277 276 277 277 277 278 279 279 279 279 279 279 278 278 278 278 278 278 277 277 277 277 276 276 275 275 274 272 272 272 273 274 274 272 272 270 269 267 267 265 264 263 262 262 262 263 262 262 261 261 261 261 261 260 260 260 260 260 260
278 276 275 275 274 277 278 278 275 275 275 279 280 276 273 279 276 280 281 281 281 281 276 273 274 273 268 273 276 277 276 276 276 278 278 278 277 277 278 278 279 278 277 278 277 276 276 276 275 274 274 274 274 274 273 272 272 272 272 273 272 271 270 268 267 265 264 264 263 262 261 262 260 261 261 260 260 260 259 259 259 259 259 259 259 259 259
278 278 276 275 279 277 278 274 274 276 277 280 279 268 270 276 275 278 280 280 280 275 274 273 275 275 269 273 275 277 278 277 276 277 277 277 276 276 276 276 276 276 275 275 274 274 275 277 274 272 273 274 274 274 272 271 271 272 273 273 272 270 267 266 264 263 263 262 261 260 261 260 259 259 259 258 259 259 259 259 258 258 258 258 258 258 258
279 280 277 276 276 279 274 274 275 276 276 279 271 271 276 277 275 278 279 279 277 274 273 275 273 277 278 277 277 276 276 276 276 275 276 277 277 277 276 276 278 274 275 277 277 276 277 275 272 272 272 273 273 272 270 270 270 273 272 269 267 267 265 264 262 262 261 260 260 259 259 258 260 259 258 260 259 257 257 257 257 257 257 257 257 258 258
278 279 277 277 278 280 276 274 277 277 278 269 271 279 280 278 276 276 278 277 275 275 275 276 277 279 277 275 275 275 276 278 277 276 276 275 276 276 275 276 276 275 274 274 274 274 273 272 271 271 272 273 273 270 269 270 273 270 267 266 265 264 263 262 261 259 259 258 258 257 257 257 257 257 258 257 257 256 257 256 256 256 256 257 257 257 258
274 274 275 273 272 278 277 279 277 278 275 276 281 277 277 277 277 276 275 276 276 275 275 276 278 276 275 276 275 275 274 275 276 275 275 275 276 276 275 275 275 275 274 274 274 276 274 270 270 271 271 272 270 269 270 272 268 266 265 264 264 263 262 260 259 257 257 257 257 256 256 256 256 256 256 255 255 255 255 255 255 255 256 256 256 257 257
273 275 272 274 281 278 280 280 277 279 281 282 278 279 276 276 275 277 277 275 275 276 276 276 275 276 274 274 274 274 273 273 275 274 273 273 273 274 274 276 275 274 275 275 275 274 271 269 269 270 271 272 270 269 272 267 264 263 263 263 262 261 260 259 257 257 256 255 255 255 255 255 254 254 255 255 254 255 255 255 255 255 256 256 256 256 257
276 275 279 278 277 280 281 282 280 282 281 279 279 280 280 278 276 275 276 277 276 275 276 276 276 274 275 276 275 274 275 275 275 275 275 275 275 275 275 275 274 273 275 275 275 273 270 267 267 268 269 272 269 269 269 264 264 262 262 260 260 260 258 257 256 255 254 253 253 253 253 255 255 255 254 253 255 254 254 255 255 255 256 255 255 255 256
277 276 278 276 276 278 280 281 280 280 279 276 277 278 277 277 277 276 276 276 276 275 275 275 273 274 275 275 274 274 274 274 274 273 273 273 273 273 272 272 271 273 273 272 270 272 270 267 266 266 267 270 270 270 265 264 263 262 260 260 259 258 256 255 254 253 254 253 253 253 254 254 254 255 255 255 255 254 254 255 254 254 255 255 255 255 256
274 272 276 275 277 278 279 281 279 278 278 277 275 275 277 278 276 276 276 276 276 276 275 276 276 276 275 274 275 275 275 274 274 274 274 274 274 274 273 274 271 270 269 271 271 271 272 268 266 265 265 267 268 264 263 263 262 260 260 260 260 257 256 256 253 253 255 255 254 254 253 254 254 254 255 254 254 255 255 254 254 254 254 255 255 256 256
275 274 275 275 274 275 277 278 278 278 277 276 276 277 276 275 275 275 275 273 272 273 272 275 276 276 275 275 275 274 274 274 274 273 273 273 273 272 274 273 270 268 269 271 272 271 272 271 267 265 264 264 263 262 262 262 260 259 260 260 260 258 256 255 255 253 255 256 256 255 254 253 254 253 253 254 254 255 255 255 254 255 255 256 256 257 258
273 273 273 273 273 275 276 276 277 278 278 277 276 276 275 274 274 273 273 274 274 274 276 275 275 275 275 274 275 274 274 273 273 273 273 273 274 273 272 271 270 272 271 271 271 271 272 271 266 264 263 262 260 262 262 260 259 260 260 259 258 256 254 253 254 254 254 255 255 255 254 251 252 254 254 254 254 255 255 255 256 256 257 258 259 259 260
269 270 272 274 268 267 275 276 278 278 278 277 276 275 274 274 275 274 274 273 272 274 274 275 275 275 276 274 273 273 274 274 274 273 273 273 272 272 272 270 269 270 270 271 271 270 272 268 265 264 263 261 259 261 260 259 260 261 259 258 256 255 254 254 253 254 254 253 252 253 253 253 252 252 257 261 259 257 257 262 265 267 266 261 261 262 261
269 274 275 276 277 275 275 277 279 279 277 276 276 276 276 276 276 275 274 274 272 272 273 272 273 274 275 275 273 273 273 274 275 274 274 273 272 273 271 268 266 268 269 269 269 269 270 266 264 263 263 261 259 259 259 259 260 260 258 258 257 256 254 254 255 254 254 253 253 252 252 253 252 253 253 256 262 266 267 267 268 269 270 271 272 272 270
274 275 276 277 276 276 275 274 275 278 278 277 277 277 277 276 275 274 275 276 276 275 274 272 273 274 275 275 273 273 274 274 273 272 272 273 274 273 269 270 271 268 267 267 267 269 268 265 264 262 262 260 259 258 258 258 259 258 258 259 259 257 256 255 256 256 254 254 254 253 253 254 253 253 253 253 254 261 264 265 267 267 268 269 270 270 270
275 274 275 277 277 277 277 275 274 275 275 276 277 277 277 276 275 274 274 274 274 275 275 274 273 273 274 275 273 273 274 274 273 273 273 272 272 271 270 268 268 269 270 269 269 267 265 263 262 261 261 259 258 257 257 257 257 257 256 257 258 256 255 255 255 256 255 254 254 254 253 253 252 252 252 252 253 254 256 262 264 265 266 268 268 268 268
275 274 274 274 275 275 275 274 275 274 272 274 275 274 276 276 276 272 273 275 275 274 274 275 274 272 273 274 274 273 272 273 273 270 268 268 269 266 267 268 270 269 268 265 265 264 262 261 261 260 260 258 257 256 255 256 256 256 256 256 256 255 255 254 254 254 255 254 254 254 254 254 253 253 253 253 252 252 253 253 256 260 263 263 265 265 265
275 275 275 274 274 275 274 276 277 277 275 274 275 276 275 274 274 274 273 271 272 272 273 274 274 271 269 271 271 270 272 272 268 269 269 268 268 270 269 266 265 265 263 262 260 260 260 259 259 258 259 256 255 255 255 255 255 255 254 255 253 255 256 255 254 254 255 256 254 253 253 253 253 254 253 254 253 253 252 253 252 253 254 256 259 261 262
277 276 278 276 274 277 276 276 277 278 275 273 273 274 274 271 270 269 270 272 270 269 270 269 270 267 270 270 268 271 266 267 270 269 267 268 268 264 261 260 261 260 259 259 257 257 257 257 257 258 257 254 254 254 254 254 254 254 254 255 254 254 255 255 254 255 254 254 254 254 253 253 252 254 253 254 254 253 253 253 253 252 253 254 254 258 262
276 275 276 278 279 279 278 275 274 274 274 271 272 271 270 270 271 270 271 273 273 270 272 271 268 269 271 271 267 269 270 269 268 269 270 265 259 257 257 257 256 256 257 256 255 255 255 255 255 256 254 253 253 252 253 253 254 254 254 254 254 254 255 255 254 255 254 253 252 253 256 255 254 254 254 254 253 252 252 252 252 252 252 252 253 254 257
274 273 274 275 276 274 274 275 276 275 274 270 270 269 270 272 271 271 272 272 271 271 273 273 268 268 268 267 267 268 270 270 270 267 264 258 256 255 255 256 256 256 255 254 254 254 254 254 255 256 253 252 253 252 252 252 253 254 253 254 254 254 255 254 254 254 253 253 253 255 255 255 255 253 253 252 251 252 252 252 252 252 252 252 254 253 252
272 273 273 274 274 273 273 275 276 275 273 268 270 270 267 267 271 273 273 273 269 271 271 271 271 269 266 268 267 265 264 263 261 258 256 256 255 255 256 258 261 260 259 258 255 253 254 254 254 254 253 252 252 252 252 252 252 253 252 254 252 255 256 257 257 253 252 253 253 253 252 253 252 252 252 252 252 251 251 250 251 251 251 251 251 251 252
268 268 268 271 272 271 272 272 273 273 273 270 267 270 271 270 270 271 273 273 273 273 272 268 267 270 269 264 260 258 258 255 254 254 254 254 254 254 254 254 254 255 255 254 254 254 254 255 254 253 251 251 252 251 252 253 254 254 253 254 253 254 256 258 257 258 256 254 254 253 252 251 251 250 251 251 252 251 250 249 250 250 250 250 251 252 252
270 270 269 269 267 266 268 270 271 273 273 271 272 274 274 273 273 273 274 274 271 268 268 269 268 266 260 257 257 258 256 254 253 253 253 252 252 252 252 252 252 253 253 254 254 254 254 253 254 254 253 253 253 253 254 254 255 254 254 254 255 255 254 257 257 257 256 254 253 252 251 251 251 251 251 251 251 251 249 250 250 251 251 251 251 252 253
276 277 278 278 276 275 274 274 273 272 273 273 273 272 271 271 272 272 272 270 267 266 267 266 263 256 255 256 255 254 255 256 254 254 253 252 250 250 251 252 252 253 254 254 254 254 254 254 254 255 255 255 254 254 254 254 255 254 253 253 253 253 253 253 255 254 253 253 252 253 252 251 251 251 251 251 250 250 250 250 251 251 251 251 251 251 254
275 276 275 275 272 272 274 276 275 272 272 272 271 269 270 268 267 270 267 266 267 265 258 255 254 254 254 254 255 254 256 258 257 255 254 253 253 253 254 253 254 254 254 255 254 254 255 255 254 254 255 255 254 254 254 254 253 252 251 251 251 251 252 251 252 252 253 253 251 250 249 250 251 251 252 251 250 250 251 251 251 251 251 251 252 251 252
270 273 274 274 271 269 267 269 268 267 267 269 268 265 263 262 262 263 263 262 255 255 256 256 255 255 254 254 254 256 256 255 255 255 254 253 253 254 255 254 255 255 255 254 253 252 253 254 254 254 255 255 254 254 254 253 251 251 250 250 250 251 251 251 251 250 251 250 250 251 250 251 251 251 251 250 250 249 250 249 250 250 251 251 251 251 251
268 272 272 268 259 257 255 253 252 256 263 261 259 258 257 254 254 251 251 252 253 253 252 254 255 256 254 253 252 251 251 252 252 253 253 253 254 254 253 253 253 253 254 254 253 251 250 252 254 254 255 255 254 253 253 254 250 249 249 250 249 249 250 250 250 250 250 250 250 249 250 250 249 249 250 249 250 249 250 250 250 250 251 251 251 251 251
254 256 255 254 252 251 250 250 250 250 251 250 249 250 251 250 251 251 251 251 251 253 253 253 254 253 252 252 250 249 249 249 250 250 250 250 251 252 252 252 251 251 251 252 251 250 250 253 254 252 251 251 252 253 253 254 254 250 249 249 250 250 251 250 250 250 249 247 249 248 248 249 249 248 248 248 248 248 250 250 250 250 250 250 250 250 251
258 254 252 251 251 251 250 250 249 247 250 252 248 249 250 251 251 251 252 251 251 252 253 252 253 253 252 250 249 247 246 245 246 246 246 246 247 249 250 249 248 249 249 251 250 248 249 251 250 248 248 247 251 252 252 253 254 249 249 248 248 249 249 249 249 249 249 249 247 247 246 247 248 247 248 248 247 248 249 250 250 250 250 250 250 250 250
253 253 251 251 251 249 251 250 248 249 249 248 250 250 250 252 252 251 252 252 252 252 252 254 254 252 250 249 248 247 244 243 244 244 244 243 244 246 246 246 246 246 250 251 249 247 250 252 249 246 245 248 249 247 249 251 252 250 247 247 247 247 248 248 248 247 248 247 248 250 248 248 247 248 248 248 247 249 247 249 250 250 250 250 250 250 250
252 252 252 251 250 250 249 250 249 248 248 249 249 249 250 252 252 252 250 250 250 250 251 251 252 250 249 249 247 245 243 243 242 242 242 243 245 245 247 247 247 244 244 245 245 245 250 250 247 245 244 249 249 251 247 251 249 246 246 247 246 246 246 247 247 249 247 247 247 247 248 247 247 248 248 247 248 247 248 248 249 249 249 249 249 249 249
252 252 251 251 250 249 249 249 250 250 248 247 248 248 249 251 251 250 250 251 250 250 249 249 250 248 246 245 245 243 241 240 239 240 241 245 246 244 247 248 246 245 251 250 250 249 247 245 247 250 248 248 248 252 252 251 245 244 245 245 247 247 247 247 247 248 247 246 246 247 246 246 247 247 247 247 247 248 248 248 248 249 249 249 249 249 249
249 249 249 249 249 248 248 249 249 248 248 248 247 247 248 248 249 249 248 249 249 249 249 248 248 248 247 245 245 244 242 241 240 240 241 242 242 243 247 246 244 243 251 249 248 245 244 243 243 243 250 251 250 252 253 251 249 244 244 245 247 248 247 248 248 248 247 246 247 247 246 247 247 247 248 248 248 248 248 248 248 249 250 249 248 248 248
248 249 248 249 248 249 249 249 248 249 248 247 247 247 247 247 248 248 248 248 249 250 249 248 247 246 245 245 246 245 243 242 242 241 243 246 246 245 243 244 243 245 250 248 247 247 245 245 244 248 252 253 254 254 252 250 250 250 246 246 247 248 248 249 249 249 249 249 249 249 248 249 249 248 248 248 248 248 249 249 249 249 249 249 249 249 248
247 247 248 248 249 250 250 249 249 248 248 248 248 247 246 246 245 246 247 248 248 248 249 249 249 249 249 247 247 246 244 243 243 243 245 247 247 248 245 247 245 245 247 251 248 247 246 244 248 253 253 254 254 255 252 251 251 251 250 249 247 248 249 250 250 250 250 250 250 250 250 250 249 249 249 249 250 250 250 250 250 250 250 249 249 249 249
247 247 249 249 248 248 248 248 248 249 250 250 249 249 247 245 245 245 246 248 249 250 250 250 250 250 248 248 247 247 244 242 242 242 243 245 246 246 244 247 244 249 251 252 248 247 246 252 254 254 255 255 255 254 252 252 252 251 251 248 248 249 250 251 251 251 251 251 251 250 250 250 250 250 250 250 250 250 251 251 251 250 250 249 249 249 249
246 247 246 247 247 247 248 249 251 251 251 250 249 247 246 245 245 245 245 245 246 245 245 248 249 249 249 247 244 245 246 246 246 243 242 243 244 246 248 250 251 252 251 247 247 247 248 249 253 255 255 255 255 250 249 250 250 250 250 249 249 250 251 251 251 251 251 251 251 251 252 251 251 251 251 251 251 251 250 250 250 250 250 249 249 249 249
245 245 245 245 246 246 247 248 249 249 249 249 249 248 246 244 245 245 245 245 246 245 245 244 244 243 243 243 243 243 243 244 247 249 242 238 239 239 240 239 244 250 252 253 253 254 255 255 255 256 256 256 254 250 250 251 251 250 249 249 249 250 251 251 252 252 252 252 252 251 251 251 251 251 251 251 251 251 250 250 249 249 249 249 249 249 248
243 244 244 245 246 247 248 249 249 249 249 249 249 249 248 248 249 249 249 248 249 249 249 247 245 245 242 243 244 243 242 243 245 247 245 240 241 245 245 249 251 252 251 249 247 247 252 254 255 255 256 255 249 247 248 248 250 250 251 250 251 251 252 252 252 252 252 252 252 252 251 251 251 251 251 250 250 250 250 249 249 249 248 249 248 248 248
245 245 247 247 247 248 248 249 249 248 247 248 249 248 248 250 251 250 248 248 248 248 246 246 245 244 243 241 240 240 240 241 244 246 247 247 246 247 248 247 248 252 253 251 249 249 252 255 255 255 254 251 251 251 251 248 249 250 251 252 252 252 253 253 253 253 253 252 252 252 251 251 251 251 250 250 250 249 249 249 249 249 250 249 249 249 249
246 247 247 247 247 246 246 248 248 247 247 247 247 248 249 250 250 249 248 247 246 247 246 246 245 244 241 241 242 241 239 239 242 247 247 247 248 250 252 252 252 253 254 253 251 250 249 246 246 251 252 251 250 251 251 250 251 252 253 252 252 253 253 253 253 253 252 252 252 251 251 250 250 249 249 249 249 249 249 249 248 248 248 248 248 248 248
249 248 247 247 246 246 246 246 246 247 247 247 248 248 248 248 247 246 246 250 244 245 244 245 248 246 241 242 244 243 242 242 242 246 250 251 251 250 251 254 251 251 249 248 247 246 248 249 252 253 253 251 251 250 252 253 252 252 252 252 253 252 252 252 251 251 250 250 250 249 250 250 249 249 249 249 249 248 248 248 248 248 248 248 247 247 247
Wind_Speed
3 2 3 5 3 3 4 9 9 11 12 9 14 13 9 10 11 17 9 8 9 15 7 9 10 5 4 6 7 7 6 4 4 5 7 8 9 7 8 10 10 11 11 10 10 10 10 9 11 11 10 9 9 9 9 9 9 9 8 8 9 9 8 9 9 8 7 6 5 6 6 5 5 4 3 2 2 2 2 2 1 1 0 1 1 0 0
3 3 5 4 7 3 1 5 10 12 13 16 15 15 12 13 12 10 7 5 14 4 3 10 6 4 5 3 3 4 5 5 7 6 6 7 7 8 10 10 10 9 8 7 8 9 9 11 12 12 11 11 12 12 12 11 10 9 8 9 9 9 9 9 8 7 7 7 7 7 7 6 5 4 3 3 3 2 2 1 1 1 1 1 1 0 1
8 4 5 5 6 8 8 10 10 9 2 3 11 11 4 1 6 11 7 10 14 5 6 3 2 2 3 3 2 4 4 4 5 6 7 7 6 7 9 8 8 8 8 8 8 10 12 12 13 13 13 13 12 11 11 11 11 10 9 9 9 10 10 9 8 7 7 7 7 8 6 6 3 2 3 2 1 1 1 2 2 2 1 1 0 0 1
7 4 8 6 2 0 6 13 14 5 5 9 7 6 8 8 12 13 9 11 14 2 4 3 4 4 5 7 6 4 6 6 5 6 7 5 6 7 9 8 7 8 8 9 10 12 12 12 11 11 11 10 9 10 10 11 10 8 9 10 10 10 9 7 8 9 8 8 8 7 6 4 4 2 2 2 2 3 3 2 2 2 1 1 0 0 1
6 2 4 6 3 1 9 22 14 11 15 12 2 7 8 15 16 10 11 18 6 4 7 6 5 6 7 6 5 6 5 5 7 8 7 7 7 8 7 7 8 9 10 10 11 10 8 10 11 12 10 9 10 11 11 11 7 9 10 10 9 9 8 8 8 8 8 8 6 6 5 4 3 3 3 4 4 4 4 2 2 2 1 0 1 1 1
2 3 3 4 4 9 17 2 6 16 18 17 13 12 15 15 12 9 7 5 4 5 5 9 7 8 7 9 9 5 6 7 7 5 5 8 8 6 5 6 7 7 6 6 7 9 9 9 10 8 9 11 11 9 8 5 9 9 9 9 9 9 8 8 8 8 9 7 7 6 5 5 4 3 4 5 4 3 1 1 1 2 1 1 1 1 2
3 3 5 3 11 18 1 4 4 4 4 8 16 17 12 12 11 2 0 3 5 10 9 9 7 5 2 0 3 4 7 5 5 7 8 9 8 8 6 6 7 7 7 7 6 6 8 8 6 7 8 8 5 5 6 8 7 9 8 9 8 8 8 7 7 7 9 7 7 6 6 5 4 5 5 4 4 3 1 1 2 2 2 1 2 2 2
4 4 5 6 9 2 4 5 4 2 6 3 2 4 9 7 9 13 10 8 9 8 5 2 1 1 1 1 5 7 6 7 8 7 8 8 7 7 8 9 8 8 9 10 10 9 6 6 7 8 9 7 7 7 6 8 7 8 8 7 8 7 7 7 8 9 8 7 6 6 7 5 5 5 5 5 3 2 1 1 1 1 2 1 2 3 3
6 5 9 10 4 8 5 1 2 7 7 7 9 8 8 11 10 9 8 10 11 5 3 3 4 3 1 2 7 6 9 9 9 9 8 5 6 8 6 7 8 8 7 8 8 5 6 7 7 9 6 7 7 6 7 7 6 5 5 7 9 9 8 9 9 9 9 8 7 7 6 6 6 6 5 4 2 1 0 2 2 2 2 2 2 3 4
8 5 4 2 2 12 11 5 2 3 3 6 4 3 6 1 5 10 12 12 9 7 3 5 4 3 1 4 8 4 8 5 7 3 3 3 4 5 4 3 3 3 5 3 4 7 7 8 8 5 6 8 8 8 7 6 6 7 6 9 9 8 9 8 9 9 8 7 8 6 6 7 6 5 2 1 1 1 1 2 3 3 3 3 2 2 4
6 5 7 6 8 7 2 3 3 2 2 8 5 2 5 4 10 11 11 10 9 8 8 5 5 4 3 8 7 6 2 5 5 7 8 7 6 5 7 8 8 8 7 6 5 5 6 7 7 6 7 8 8 8 7 8 7 7 9 9 9 10 9 8 8 8 6 6 6 7 6 6 5 4 2 2 1 0 1 1 3 2 3 3 3 2 3
5 6 6 10 4 5 1 4 2 4 4 6 6 1 7 2 7 6 9 11 10 5 7 9 8 9 7 8 7 5 8 8 9 9 9 7 7 7 6 5 4 3 6 7 4 5 7 8 6 8 8 8 7 8 8 7 7 8 11 12 8 6 8 8 8 6 5 6 6 6 6 5 4 3 2 1 1 1 1 1 2 2 3 3 5 4 3
9 9 7 2 6 1 1 4 3 4 2 5 3 10 3 3 7 7 8 8 5 8 9 8 8 10 7 6 3 3 5 5 3 5 4 6 6 8 7 7 5 5 6 8 10 11 10 6 7 7 8 7 7 6 7 8 9 12 7 6 8 8 9 8 6 6 5 6 7 5 4 5 4 2 2 2 2 2 2 2 2 3 4 4 4 4 2
9 8 8 8 4 4 8 1 4 4 4 4 6 3 2 10 7 7 7 7 6 11 12 10 8 7 4 2 1 5 6 7 5 5 5 2 2 2 1 5 7 5 5 5 4 3 4 7 7 8 8 9 7 8 6 10 12 3 7 8 8 9 8 7 7 6 6 4 5 5 4 5 4 3 2 2 2 2 2 2 3 4 4 3 4 4 2
2 2 7 1 9 2 9 10 3 4 5 6 4 3 1 2 6 9 6 7 9 10 9 10 10 3 4 6 5 5 4 3 4 5 5 6 8 8 4 3 5 7 7 7 9 10 6 7 7 7 8 8 7 6 10 10 5 7 7 8 8 8 8 7 7 7 6 6 5 5 5 5 5 4 3 2 3 3 2 2 3 5 4 4 5 5 3
6 8 8 8 3 9 13 15 9 7 6 5 7 7 3 1 5 7 8 6 8 10 9 10 7 5 3 1 4 4 4 5 5 2 3 4 4 4 5 6 8 8 9 8 8 6 5 6 6 7 10 10 8 9 12 5 7 6 7 7 8 8 7 7 7 6 5 5 5 4 5 5 4 5 4 3 3 3 1 1 2 3 2 3 3 5 7
8 7 2 1 1 10 14 4 2 5 5 5 9 7 8 7 5 4 5 9 7 10 9 7 7 5 7 8 7 8 8 8 8 7 7 8 8 8 9 10 7 7 11 11 10 7 6 7 7 8 7 10 9 11 6 8 8 9 9 9 8 8 7 7 6 6 5 5 5 5 5 6 5 5 4 3 2 2 1 1 2 3 3 2 3 4 5
1 1 3 3 2 3 7 5 1 1 4 0 4 6 5 5 6 10 9 7 8 8 6 6 3 6 7 8 6 6 7 6 6 4 3 4 6 5 4 3 5 8 8 6 6 8 7 7 8 7 8 8 12 11 7 8 9 9 10 10 9 8 7 6 7 6 7 5 5 6 5 5 5 5 5 4 3 2 2 2 2 3 4 3 3 4 5
1 4 3 3 4 3 8 9 1 1 0 4 3 4 6 6 7 8 4 5 8 9 9 9 9 10 8 8 8 8 7 6 6 7 8 7 7 8 8 11 6 5 6 7 9 10 11 8 9 8 8 9 7 5 10 9 10 10 10 10 9 8 8 7 6 7 7 6 5 5 4 4 4 4 4 3 3 3 3 3 3 3 4 3 4 5 6
4 3 3 2 2 3 3 4 4 5 4 3 4 3 2 3 4 4 6 3 3 5 6 10 9 10 7 8 9 7 7 8 7 7 8 9 6 8 9 6 6 6 6 9 11 10 12 11 9 9 8 9 7 7 7 10 10 10 10 11 11 10 9 8 7 7 7 5 6 5 5 5 4 4 3 3 4 5 5 5 4 4 3 5 6 6 7
0 2 1 2 3 2 2 4 5 6 4 4 4 4 2 2 4 4 3 4 6 8 10 9 9 8 9 9 9 8 7 6 6 7 9 9 10 8 6 7 8 10 10 11 11 10 12 7 7 8 9 8 7 9 10 10 11 12 11 8 7 7 7 7 7 6 6 6 5 5 4 4 3 4 4 4 6 5 6 4 5 6 6 7 7 7 6
3 6 5 5 3 3 5 7 10 10 7 5 4 2 3 5 6 6 6 6 4 7 6 7 9 10 10 7 6 7 9 9 8 7 8 8 8 8 7 5 7 8 9 11 11 11 11 6 8 9 9 8 8 8 9 10 11 12 11 9 7 8 7 7 6 6 5 5 4 4 5 4 3 4 6 10 8 6 5 10 15 16 13 8 8 7 8
4 3 8 10 6 4 6 8 9 9 5 6 7 8 9 9 8 8 7 6 5 7 9 5 8 9 8 9 7 8 8 9 10 9 8 8 7 9 6 5 6 9 10 9 9 9 10 6 8 9 9 9 9 8 9 10 11 10 11 9 7 7 7 7 7 7 5 5 4 4 4 3 3 3 4 5 9 13 13 12 12 14 15 18 18 17 11
1 4 9 10 6 6 4 4 5 7 7 9 10 10 8 7 7 8 9 10 10 9 7 6 8 10 9 9 7 10 10 10 7 7 9 9 9 8 5 8 9 9 9 9 11 14 8 7 9 8 8 8 9 8 8 8 8 9 10 9 9 8 7 5 6 6 4 4 4 4 3 3 3 3 3 4 7 7 7 8 10 12 14 16 16 14 15
3 3 5 9 8 7 3 1 4 4 3 7 7 10 11 9 7 7 9 9 7 8 7 8 9 9 10 11 8 10 11 11 9 10 9 8 6 6 7 6 8 10 12 11 10 7 5 7 7 8 9 8 6 6 7 7 7 8 7 7 6 5 5 5 5 6 5 4 4 4 4 3 3 2 3 3 4 7 9 10 11 13 15 15 12 10 10
3 3 4 1 1 5 1 1 3 3 5 7 6 5 6 7 6 5 9 10 9 8 8 9 7 8 10 12 10 9 8 10 8 5 4 5 5 5 6 10 12 8 6 5 5 5 5 6 7 7 8 7 7 6 6 6 6 7 7 6 5 5 6 6 6 5 5 4 4 3 3 3 2 3 3 3 3 2 4 7 10 6 0 1 5 8 9
3 6 6 2 3 6 4 7 7 6 8 8 9 9 7 6 7 6 4 5 7 6 8 10 9 5 5 8 8 6 8 8 2 3 6 6 7 10 7 4 3 4 5 4 4 4 5 5 6 7 7 5 6 6 7 7 7 6 5 6 4 4 6 5 4 5 4 3 4 3 3 3 3 3 3 3 3 3 3 3 3 6 9 6 4 6 8
9 8 10 9 7 9 6 9 11 10 5 7 7 7 6 2 1 2 5 7 5 6 7 6 6 5 8 7 6 9 5 5 10 6 5 10 6 1 0 1 1 2 3 3 3 3 4 5 5 5 5 5 7 6 7 7 7 6 6 6 5 4 4 4 4 3 4 5 4 5 4 3 3 3 4 3 4 4 4 3 4 4 5 8 7 10 15
9 8 6 7 9 9 5 1 2 6 6 4 5 4 3 3 7 7 8 9 8 4 6 7 6 7 8 7 5 7 8 7 7 10 8 3 1 1 2 3 3 3 3 3 3 3 4 4 4 4 3 3 5 5 6 6 6 6 5 5 5 4 3 4 5 5 5 5 4 4 5 4 4 3 3 4 5 4 5 4 4 4 5 7 6 9 7
4 4 6 8 9 6 5 6 8 8 5 4 5 6 7 7 6 8 10 9 6 8 10 7 3 6 7 6 6 9 10 11 9 4 1 1 2 3 3 4 6 5 3 3 3 3 4 4 4 4 4 3 6 4 5 5 5 5 5 5 5 5 5 4 5 5 4 4 5 6 5 3 3 4 4 3 4 4 5 4 5 5 6 5 5 6 8
6 7 9 9 9 6 7 11 10 7 3 5 6 6 4 5 8 9 10 9 5 7 9 8 8 6 4 9 7 4 3 2 1 1 3 3 2 2 2 2 3 4 4 4 4 3 4 4 4 3 2 3 4 4 6 5 4 4 4 3 3 5 8 8 7 5 4 4 5 4 4 4 4 5 5 4 4 4 5 4 5 5 6 5 5 6 7
3 3 6 6 6 6 7 7 7 8 8 4 4 6 9 9 10 13 12 9 10 10 9 6 6 9 7 2 2 3 2 2 3 3 3 4 3 3 3 4 5 5 4 4 4 3 3 3 3 1 2 3 4 4 4 4 3 4 4 4 4 3 5 9 5 6 6 5 5 5 6 5 5 4 4 5 5 5 4 4 5 5 5 6 7 7 5
5 4 5 6 3 3 7 7 7 11 10 7 11 11 8 8 9 9 10 8 6 5 5 7 5 3 3 4 4 4 4 4 4 5 4 4 4 3 4 4 5 6 5 5 4 3 2 3 2 2 3 3 4 4 4 4 4 4 3 3 3 3 3 6 6 5 4 6 6 6 5 5 5 5 5 6 5 5 4 5 6 5 6 7 7 7 5
10 12 12 9 8 9 10 12 9 10 10 7 7 7 6 7 8 8 8 6 4 4 5 4 1 2 4 4 5 4 6 5 3 2 3 4 3 3 4 5 5 6 5 4 4 2 1 2 3 2 2 2 3 3 3 4 3 3 3 3 4 3 4 5 5 4 5 6 6 5 4 5 5 5 6 6 4 5 6 5 6 6 6 7 7 6 9
6 7 6 6 4 5 6 7 6 6 7 8 6 6 6 5 5 7 4 4 5 3 1 4 4 4 5 5 5 4 4 4 3 6 5 5 4 3 3 4 6 5 5 3 2 1 0 1 1 1 1 1 1 2 2 2 2 2 2 3 4 4 4 5 5 5 5 5 4 4 3 4 5 4 5 5 5 6 6 6 6 6 6 7 7 5 6
4 6 7 7 2 1 3 4 3 2 4 5 4 2 3 4 4 4 4 2 1 2 3 5 6 6 5 5 5 4 4 4 5 6 6 5 4 3 3 5 5 5 5 5 4 3 2 1 1 1 1 0 1 2 2 3 3 4 3 4 4 4 5 4 5 3 4 3 3 5 4 4 4 5 5 5 5 5 6 6 6 6 6 7 6 6 6
2 6 4 1 2 2 2 2 1 0 0 1 1 1 2 1 2 2 3 4 2 3 4 5 6 6 6 5 6 6 6 6 6 6 6 6 4 5 6 6 6 5 3 4 2 3 3 3 3 3 1 1 1 2 3 5 3 3 2 4 3 4 4 4 4 4 4 3 4 4 5 5 4 5 6 5 5 6 6 6 6 6 6 6 6 6 7
4 3 2 2 2 4 5 3 1 1 3 7 5 3 2 3 4 4 5 4 3 3 4 5 7 8 8 7 8 7 6 5 7 7 6 5 4 7 5 5 3 3 3 2 2 2 1 1 2 1 1 0 1 1 2 4 5 4 4 4 4 4 5 4 4 5 5 4 5 3 4 5 5 5 5 5 5 5 6 6 6 6 6 6 5 6 7
4 4 6 4 4 6 6 3 4 6 5 4 6 6 3 4 4 5 6 5 3 3 6 8 8 8 8 9 8 5 5 5 6 8 8 5 3 4 3 2 2 2 1 1 2 0 0 1 2 1 1 2 3 2 2 3 4 3 4 3 3 4 3 4 5 5 5 5 3 4 4 5 5 4 5 5 5 6 7 7 6 6 6 6 5 6 6
4 4 3 3 5 3 5 6 7 6 5 4 4 5 2 4 5 6 6 6 5 3 4 6 8 8 7 8 8 7 3 5 5 8 8 5 4 5 4 3 1 2 2 2 1 1 2 3 2 2 2 2 2 2 2 3 3 3 3 4 4 4 4 4 3 3 4 3 5 5 5 6 5 6 6 6 6 6 6 6 6 6 5 5 5 6 6
3 3 3 5 5 4 4 6 6 6 6 7 6 4 3 5 4 7 6 5 4 6 5 4 7 7 6 6 7 6 4 2 4 7 6 4 4 5 6 2 1 1 1 1 1 2 2 2 2 2 2 2 2 3 1 3 1 2 3 4 3 3 3 3 4 5 5 4 6 5 6 5 5 5 6 6 5 5 5 5 5 5 6 6 6 5 5
3 3 4 5 5 5 5 5 4 8 8 7 6 5 5 5 6 8 5 5 6 6 7 7 7 9 7 7 7 5 4 3 4 2 0 1 4 4 7 2 1 0 1 1 1 0 0 0 1 2 2 2 2 4 4 3 2 2 2 2 2 3 3 3 4 5 5 5 5 5 5 5 5 5 5 5 5 5 5 5 5 5 6 6 6 6 6
4 4 4 5 5 4 4 5 7 7 6 7 5 5 5 5 7 7 7 7 8 8 10 8 8 7 7 7 6 6 3 1 1 1 1 4 4 2 2 2 2 1 2 1 1 1 2 2 2 2 3 3 3 5 5 3 3 2 3 2 4 3 4 4 5 5 4 4 5 5 5 5 6 6 5 5 5 5 5 5 6 6 5 6 6 5 6
3 4 3 5 5 4 5 6 5 5 8 6 5 5 5 6 5 6 6 7 7 7 9 9 7 6 5 5 5 5 3 2 2 1 5 4 3 1 2 3 2 2 3 2 1 1 2 2 2 4 5 5 5 5 3 2 3 3 2 4 3 4 4 4 5 4 5 5 5 5 5 6 5 5 5 5 5 5 5 5 6 6 6 5 5 5 6
3 3 4 4 4 4 5 5 7 8 7 5 5 6 6 5 5 4 5 6 7 5 6 7 7 6 5 3 4 2 2 2 4 3 5 4 5 1 0 2 2 1 4 3 2 1 2 3 4 5 5 5 5 5 2 2 3 3 3 4 4 4 4 4 5 5 5 5 5 5 6 5 6 5 5 6 6 6 6 6 6 6 5 5 5 6 6
4 3 4 5 6 5 5 6 6 5 7 8 9 7 6 4 4 4 4 5 7 5 4 4 5 5 5 4 2 1 1 1 3 2 1 1 2 1 1 2 2 3 5 5 2 3 4 5 6 5 6 6 6 4 2 3 4 4 4 4 4 5 5 5 5 5 5 5 5 5 5 5 5 5 6 6 6 6 6 6 6 5 5 6 6 6 6
3 4 4 5 5 5 5 5 5 6 6 7 8 5 2 3 4 4 3 4 5 5 3 5 4 3 2 3 2 1 2 3 2 1 3 4 2 2 3 4 4 5 4 3 4 3 4 4 5 6 6 6 6 3 3 3 3 3 4 4 5 5 5 5 5 5 5 5 6 6 6 6 6 5 5 5 6 6 6 6 6 6 5 6 6 7 7
3 4 4 4 5 4 3 4 4 5 5 6 5 5 1 2 3 3 3 4 4 4 3 3 2 1 1 1 1 1 1 2 3 0 1 1 1 1 2 2 4 5 5 5 5 5 6 7 7 7 6 5 4 2 3 3 3 4 4 5 4 5 5 5 5 5 4 4 5 5 5 5 5 5 5 6 6 6 6 6 6 6 6 6 6 6 6
4 4 3 4 4 6 4 4 5 6 5 4 6 4 3 5 5 6 4 3 3 4 4 3 3 3 2 1 1 3 2 1 1 0 0 2 1 2 3 3 5 6 5 2 4 4 5 6 6 6 6 5 3 3 3 3 4 4 5 5 5 5 5 5 5 5 5 5 5 5 5 5 5 5 6 6 6 6 6 6 6 6 6 6 6 7 7
2 3 4 5 4 4 4 5 5 4 4 4 4 3 1 2 5 4 4 4 2 2 2 2 3 2 3 2 2 2 3 3 3 2 3 3 3 3 3 3 3 6 6 5 3 3 5 5 5 5 5 3 3 3 3 3 4 4 4 6 5 4 5 6 5 6 6 6 6 6 6 6 6 6 6 6 6 6 6 6 6 7 8 8 7 7 6
3 4 3 3 3 3 4 4 4 3 3 3 3 2 2 3 4 3 2 1 2 4 4 3 2 2 3 3 2 1 1 2 2 3 2 3 2 3 4 4 3 3 4 3 2 3 3 2 3 4 4 3 3 3 3 3 4 4 4 4 4 4 4 5 4 5 5 5 5 5 6 5 5 6 6 6 6 6 6 6 6 6 6 6 6 6 6
5 4 4 3 4 4 5 4 4 4 3 3 2 3 3 3 4 3 2 3 4 2 1 2 1 0 0 1 2 3 1 1 2 2 3 4 3 4 6 4 1 2 2 2 3 3 2 3 4 4 4 4 3 3 4 4 3 3 4 4 4 4 4 5 5 5 5 5 5 5 6 5 5 6 6 6 5 6 6 6 6 6 6 6 6 6 6
Wind_Direction
153 153 133 151 158 184 180 196 198 194 204 180 198 214 214 158 203 237 234 180 219 247 196 191 207 190 187 205 212 205 195 181 171 171 190 200 206 201 203 211 209 208 204 197 190 187 187 178 189 194 192 195 195 194 194 195 193 201 181 172 174 174 175 187 196 184 170 160 144 141 139 135 138 143 147 168 196 203 183 171 158 171 155 174 165 159 314
204 191 149 177 173 170 172 216 217 217 202 203 198 212 211 192 223 241 249 202 229 218 173 195 208 184 173 192 149 127 147 183 187 190 204 210 208 202 212 217 215 214 209 192 189 184 189 193 196 196 196 197 197 196 196 193 195 199 172 185 179 182 188 199 191 175 170 157 150 140 140 145 146 142 152 193 210 196 191 183 210 206 213 226 160 228 269
249 194 144 170 187 185 222 232 224 217 159 166 208 220 211 225 292 271 266 250 263 240 176 177 228 154 73 80 123 177 194 187 191 199 218 224 211 210 221 220 219 213 209 200 189 194 200 199 200 198 201 201 199 198 194 190 196 191 180 185 193 190 201 198 181 165 163 168 149 153 146 133 137 146 176 199 209 204 215 213 216 219 219 189 165 268 277
240 145 164 187 130 43 244 253 237 143 174 211 199 194 200 186 218 224 237 253 252 187 180 166 168 151 169 196 211 188 217 213 200 210 227 222 221 219 219 220 215 213 210 202 200 204 204 203 201 203 204 201 192 201 195 198 197 175 182 192 195 200 202 181 175 173 174 158 158 153 140 150 151 158 166 202 213 214 218 212 228 206 224 176 257 256 276
211 58 150 142 110 321 282 248 226 171 214 219 128 219 200 212 215 214 217 236 235 171 174 169 224 196 222 230 225 227 233 216 206 220 225 224 233 232 221 212 211 212 211 209 207 208 203 201 202 207 196 184 198 200 197 205 171 176 190 194 197 201 193 180 183 180 170 168 163 157 155 149 152 158 179 209 214 218 219 224 216 222 232 242 238 266 281
139 351 104 110 142 220 237 350 152 190 208 217 199 211 209 216 192 214 209 227 138 135 161 193 207 187 209 207 226 199 195 211 220 231 228 231 234 237 233 221 216 215 210 209 208 206 203 204 204 194 185 195 205 200 195 169 174 189 185 196 196 201 186 188 180 173 171 168 167 161 151 150 154 169 187 210 217 220 213 231 225 257 244 246 252 281 303
165 114 105 156 214 236 19 330 351 359 260 221 213 223 213 211 216 229 227 128 182 198 197 198 211 211 217 244 182 210 220 196 184 192 214 225 225 226 223 228 224 212 204 205 200 203 206 198 186 172 195 203 188 167 171 177 186 182 194 194 199 197 190 184 168 172 171 171 164 154 148 153 162 182 195 207 213 209 204 229 239 250 262 271 290 298 302
62 103 180 209 234 278 307 308 338 345 83 62 87 287 248 222 195 205 213 211 219 221 208 178 127 117 169 339 236 226 229 194 186 196 219 225 206 211 214 206 214 197 199 198 195 204 190 166 184 185 197 181 174 190 161 178 180 188 187 194 200 182 189 183 182 176 170 168 160 152 151 157 174 193 195 202 203 202 203 234 238 253 280 288 295 301 299
172 188 194 230 358 318 232 11 240 170 157 163 161 217 251 219 197 168 192 222 234 234 221 134 91 89 82 336 279 217 214 210 210 202 215 197 204 213 219 198 208 203 193 189 195 168 169 181 177 197 180 165 172 162 171 180 172 178 172 192 199 192 194 186 184 177 171 164 163 158 159 170 188 198 195 204 205 186 233 279 286 296 295 297 297 295 292
166 156 211 330 279 247 256 214 231 162 186 163 167 140 271 334 174 176 180 207 223 215 132 118 146 126 56 306 274 257 222 207 210 242 243 227 224 215 212 215 237 204 197 177 165 172 168 183 192 171 165 161 162 170 184 170 166 179 182 206 199 190 195 186 178 166 164 159 161 165 166 187 191 194 184 204 197 183 278 292 289 286 297 289 277 274 279
119 190 219 217 226 248 142 206 184 177 131 122 102 72 284 246 182 198 175 197 215 203 154 158 144 100 172 242 243 262 196 196 193 196 216 213 219 217 207 196 198 197 189 173 165 153 159 183 194 167 164 157 157 181 178 179 177 182 206 210 192 195 189 163 161 154 151 154 157 165 179 184 178 185 191 196 186 180 225 250 268 281 279 285 283 268 252
199 190 220 233 221 254 258 199 223 198 171 117 78 317 268 246 199 172 168 193 207 170 148 151 154 159 195 240 252 217 193 185 191 182 193 203 222 233 216 226 223 158 140 122 128 158 180 207 164 163 158 162 172 176 184 161 180 202 213 210 189 163 146 146 145 147 148 150 157 164 174 166 168 176 162 142 198 216 252 263 270 280 281 279 282 275 256
213 212 245 352 297 271 254 193 199 185 187 87 125 223 229 200 178 184 177 195 179 147 151 165 166 227 188 198 203 153 138 118 182 236 232 206 194 199 196 207 169 148 176 177 180 189 200 177 161 163 156 153 181 183 164 170 201 215 200 147 149 151 135 139 141 143 144 153 157 163 158 163 159 156 171 189 182 210 247 261 264 284 282 275 273 275 263
222 223 229 240 267 213 166 298 148 196 110 190 199 239 178 145 188 197 188 170 163 165 167 186 205 213 167 139 108 139 172 175 189 195 206 209 253 264 222 162 163 173 180 205 225 247 222 163 167 164 163 174 182 167 161 201 216 149 135 147 141 143 145 144 144 143 146 145 145 152 149 136 149 174 189 171 206 209 234 245 274 282 283 283 285 282 268
48 95 239 268 244 178 125 126 57 279 142 239 166 138 19 143 166 163 196 187 186 167 188 204 205 179 138 171 186 194 202 214 218 195 177 190 204 205 181 191 205 174 184 204 212 215 188 164 167 176 172 180 178 170 195 215 144 136 138 141 142 141 140 145 150 152 153 152 151 147 152 159 155 176 187 184 211 208 216 248 275 290 286 292 298 295 288
180 181 206 211 218 145 171 146 170 204 200 177 151 132 152 128 149 171 177 213 185 190 181 196 222 222 188 252 221 218 244 239 255 238 219 221 229 235 229 219 194 177 198 208 216 219 179 172 175 178 178 185 183 185 215 142 134 129 138 138 140 140 148 151 148 151 154 151 150 157 156 154 161 170 191 194 206 214 210 230 275 286 287 292 298 302 307
163 196 191 157 190 160 185 179 122 193 157 151 170 142 162 156 228 186 174 196 193 197 194 195 192 198 208 214 195 183 211 213 215 218 220 209 213 215 209 215 195 187 198 206 215 219 196 185 189 190 194 188 184 204 194 145 153 152 147 147 146 155 157 157 154 153 144 155 163 169 177 165 172 178 194 181 193 230 181 257 255 274 277 277 286 293 297
180 278 148 132 63 208 202 257 252 122 139 1 147 140 135 220 173 168 184 199 186 196 195 168 213 205 215 210 217 221 238 215 224 221 244 251 239 235 230 232 193 205 213 219 211 223 223 199 197 196 202 189 189 211 149 161 155 154 150 150 158 162 162 159 164 156 161 176 182 186 182 187 188 186 180 189 183 207 203 236 230 250 270 273 277 279 282
88 266 75 147 169 172 200 216 168 43 125 171 157 166 184 180 172 186 223 171 187 188 173 188 198 218 212 207 217 214 220 224 225 213 216 230 219 216 219 223 191 204 200 209 219 219 228 212 200 204 202 215 210 139 165 158 158 154 157 161 161 164 169 171 164 172 176 183 182 185 192 185 186 182 183 173 183 205 215 222 234 231 253 262 276 275 281
180 240 124 197 301 245 250 231 202 238 228 203 207 217 98 132 168 182 189 131 133 138 172 203 201 227 215 200 219 212 215 220 222 220 219 228 234 232 224 218 178 194 196 215 221 217 228 221 195 197 199 207 189 164 161 161 156 155 162 171 172 177 178 173 176 179 186 183 182 187 195 180 180 194 200 183 188 207 198 208 210 242 235 256 259 269 279
277 37 314 311 358 3 270 246 244 239 210 184 215 226 215 146 157 187 182 202 177 174 202 196 199 217 228 206 208 207 219 229 230 224 221 223 224 229 216 217 191 199 204 214 224 218 231 213 179 193 205 198 181 175 169 163 160 163 171 172 169 170 172 167 182 181 183 188 190 192 200 205 217 200 190 196 211 230 227 192 204 225 248 251 249 250 254
222 183 196 157 104 255 241 226 227 230 219 177 193 161 197 207 201 194 186 225 221 212 215 191 194 206 222 211 196 217 225 224 226 225 226 228 228 234 230 201 198 212 214 213 221 223 232 196 185 195 199 193 189 182 166 168 167 169 167 164 169 182 175 181 179 177 185 190 193 193 195 209 230 276 242 231 219 212 239 231 236 239 235 230 235 236 238
229 209 182 192 190 199 210 199 213 221 198 163 191 209 214 219 210 192 184 205 230 235 236 206 189 210 216 223 197 218 236 238 229 221 218 225 229 234 214 192 215 212 222 220 228 235 230 187 194 195 197 190 185 183 174 174 174 169 159 166 179 181 180 193 188 183 183 187 191 186 196 193 206 235 317 290 270 264 267 268 265 267 269 272 277 280 282
172 195 172 193 173 195 241 221 204 217 199 181 204 224 223 219 200 190 197 206 204 227 230 218 210 211 221 229 189 215 237 243 238 230 227 224 226 225 194 199 212 213 226 224 222 230 219 190 198 193 196 193 189 179 173 171 171 163 170 169 182 191 187 184 181 185 178 179 168 178 194 198 198 215 252 296 300 283 282 286 288 285 280 279 279 281 283
199 209 184 194 199 220 223 146 196 218 192 177 198 223 222 220 216 186 198 224 223 214 223 225 223 215 219 236 216 216 227 239 227 225 229 226 230 217 218 209 218 216 222 220 224 227 197 193 191 191 194 193 175 174 169 166 160 163 173 174 172 169 175 174 180 176 177 176 180 177 193 197 210 196 218 241 284 311 320 319 305 284 278 275 279 285 291
150 140 182 181 227 239 237 43 311 244 212 190 206 236 239 218 212 181 208 214 223 216 218 233 230 218 208 224 231 225 235 245 244 223 227 230 232 228 227 220 225 224 233 225 218 209 201 194 190 183 196 184 175 170 160 159 161 167 170 180 172 167 175 178 172 182 179 181 179 186 181 186 196 208 226 220 234 259 305 327 332 336 126 285 319 326 319
147 161 120 80 267 266 204 185 224 223 195 199 195 216 221 213 205 204 225 228 227 220 217 227 230 216 207 228 235 232 220 251 280 235 222 234 228 226 229 240 227 219 213 208 203 194 181 174 178 187 196 170 160 157 163 158 159 160 166 167 155 161 158 159 179 179 176 171 177 178 177 193 206 224 229 220 221 230 235 261 268 282 301 298 297 296 300
190 194 173 178 212 225 231 217 224 241 204 184 203 220 235 172 132 214 241 247 254 245 239 237 230 223 224 229 207 247 254 252 244 246 229 235 241 267 59 129 145 152 157 164 173 154 160 170 178 185 182 151 155 159 160 160 161 166 166 165 162 157 173 171 170 169 172 178 175 178 184 200 197 215 215 228 237 238 245 242 247 262 269 280 297 308 307
209 201 210 210 216 224 233 188 219 245 250 195 194 201 154 177 224 222 236 233 233 234 250 247 217 220 226 237 186 226 236 243 245 242 243 248 93 113 98 93 88 90 114 126 127 139 144 152 164 173 168 142 149 159 157 158 163 169 168 162 164 176 172 183 177 180 180 180 181 182 198 190 195 208 220 231 235 241 243 247 261 253 259 286 308 306 306
176 156 195 227 242 247 255 259 245 240 230 168 169 205 204 194 216 235 232 240 227 228 238 245 230 228 213 234 226 218 226 234 243 262 192 113 104 104 115 110 88 67 76 105 141 139 144 152 161 165 150 149 146 151 148 158 165 166 164 170 177 183 187 174 176 183 182 191 196 196 197 191 192 194 217 222 234 233 246 257 257 262 271 273 273 278 295
158 180 195 214 229 237 225 238 248 255 224 173 194 197 208 194 217 235 242 238 227 230 246 234 234 245 208 220 234 232 251 297 14 57 58 59 58 59 88 114 140 190 196 181 152 151 148 150 141 107 129 147 142 146 149 158 158 149 154 167 184 197 197 196 193 183 193 192 202 197 205 197 198 199 216 222 236 244 249 253 258 268 264 268 266 260 259
131 187 218 227 227 228 244 256 261 260 245 181 167 210 206 191 212 228 238 239 230 225 237 243 233 234 236 194 143 132 122 97 87 86 86 78 78 63 50 49 59 68 83 106 124 125 131 125 108 108 122 127 137 146 150 156 152 164 182 179 176 199 207 209 214 204 177 189 198 203 205 195 210 199 216 221 230 239 242 242 256 257 256 258 261 255 260
181 244 281 252 247 260 255 249 230 248 247 210 212 222 219 210 220 231 235 237 247 238 220 236 239 224 164 139 134 133 120 104 92 98 93 83 73 61 55 61 75 83 77 65 70 79 98 107 102 119 111 126 136 155 169 168 176 189 192 184 183 184 194 223 216 218 205 184 192 202 198 199 196 197 212 222 226 224 227 240 248 254 255 253 256 261 260
198 215 230 231 191 204 224 243 225 232 252 242 226 225 225 218 216 231 243 248 252 264 239 232 187 131 124 130 130 128 130 120 121 118 122 120 105 78 68 71 72 78 79 80 71 82 82 121 126 108 125 125 111 135 154 161 188 186 181 175 194 202 211 215 226 208 201 216 214 208 200 202 206 209 219 220 222 220 230 238 241 246 259 258 259 259 268
221 244 252 260 237 215 220 232 234 215 225 247 250 230 232 228 212 228 243 238 240 234 126 107 107 112 110 112 118 134 148 161 150 130 136 132 123 113 105 94 83 75 74 68 86 71 74 86 112 113 123 134 152 182 168 186 187 191 195 192 199 212 216 215 210 213 211 218 199 201 212 215 227 222 220 218 222 226 234 238 239 243 248 262 269 267 268
194 240 257 260 292 191 218 239 261 247 220 233 250 235 214 228 220 227 228 223 70 99 116 111 113 102 92 105 115 122 113 98 111 116 115 118 119 119 97 76 73 65 60 61 39 14 9 46 79 133 123 184 211 225 198 185 199 198 203 194 208 214 213 214 216 217 219 207 219 219 218 222 221 224 224 226 228 228 229 237 241 243 246 256 265 274 274
194 229 260 322 59 83 77 61 53 20 124 148 126 121 152 63 99 72 71 75 64 79 118 127 111 104 99 90 92 79 75 88 104 119 114 100 114 96 82 78 64 80 69 91 70 41 22 52 61 90 119 173 211 219 227 218 204 197 192 196 203 210 215 216 215 210 226 216 218 223 226 225 232 235 231 221 229 229 228 237 243 243 247 250 257 260 270
29 44 62 80 87 92 79 59 9 52 110 86 48 39 111 126 108 97 78 74 76 95 93 92 104 111 110 99 82 82 89 95 107 112 114 103 102 92 72 89 107 118 97 150 162 132 91 34 15 28 36 275 250 240 221 221 197 168 182 195 200 208 212 216 221 222 223 226 221 219 224 229 233 241 237 236 235 236 238 239 241 244 249 250 249 252 254
33 43 60 71 80 84 93 58 40 30 14 126 115 68 64 92 97 96 82 66 48 78 98 102 113 104 103 103 99 90 86 100 108 109 105 97 96 107 128 161 190 181 181 152 150 213 299 323 296 288 276 253 255 271 259 265 242 177 185 191 206 211 225 222 224 229 232 224 214 224 230 237 235 238 242 235 230 236 237 238 239 241 246 249 246 249 251
41 32 25 38 62 53 69 63 47 43 38 53 91 97 83 87 85 91 91 75 43 58 100 119 113 112 113 111 115 114 137 130 130 119 121 117 82 93 77 28 314 290 288 265 272 242 227 243 235 244 246 259 257 250 262 234 236 206 194 200 213 219 228 228 229 233 242 229 232 239 232 235 234 238 240 239 235 235 236 239 243 247 250 250 248 249 252
46 37 31 60 61 49 66 75 64 48 48 49 52 56 56 88 103 90 79 80 49 45 51 80 107 98 109 119 122 133 144 137 122 131 130 91 72 92 117 155 226 256 266 249 209 211 221 219 201 233 253 235 232 231 218 229 200 184 192 198 210 217 229 230 229 234 237 237 233 236 239 242 247 251 246 245 241 239 239 241 243 244 241 247 253 250 246
29 58 73 71 66 69 73 76 85 67 44 32 28 36 42 52 82 97 94 86 77 69 73 64 80 108 116 113 112 108 94 84 98 130 282 153 154 133 99 124 213 258 315 249 320 338 326 299 275 264 250 231 233 236 224 212 182 184 198 212 217 221 224 235 240 243 241 234 238 242 245 241 239 247 246 242 247 245 244 242 247 246 244 241 247 248 249
22 52 71 84 86 82 82 83 85 92 79 42 37 40 55 67 81 83 80 79 84 87 75 81 86 93 105 114 117 112 129 167 129 198 264 265 238 209 134 175 205 267 313 324 272 295 286 280 264 251 245 242 229 236 232 216 186 188 198 214 221 221 224 230 238 245 242 242 249 243 241 239 237 242 246 243 243 244 239 238 241 244 240 240 240 247 247
38 61 78 93 94 94 98 99 96 87 82 54 30 41 58 59 61 82 91 92 87 89 95 79 91 100 112 125 113 117 148 153 128 114 77 40 32 346 206 222 250 266 283 263 265 267 269 266 259 258 254 247 251 252 232 206 202 200 202 208 219 222 225 233 239 236 241 241 241 244 238 236 237 236 237 245 246 243 234 238 238 242 246 247 244 245 250
53 73 87 101 107 105 99 97 105 103 110 115 79 58 52 61 55 55 84 90 91 92 89 86 88 102 110 89 103 143 169 188 166 156 91 79 90 38 265 204 260 271 273 274 279 275 285 274 266 259 261 260 260 271 251 235 224 219 218 213 212 220 226 232 237 239 238 240 242 243 239 237 237 238 236 241 239 244 242 239 241 237 238 246 246 245 248
63 55 70 88 85 88 98 108 112 116 113 102 83 61 42 46 61 57 58 81 87 78 78 95 97 96 105 106 56 24 0 304 262 231 205 162 155 213 212 193 240 254 289 297 288 284 274 271 279 278 281 281 271 266 250 241 233 239 230 227 224 222 229 234 237 241 240 242 244 241 241 243 240 241 238 241 243 245 249 245 250 248 239 244 248 249 254
65 71 70 93 101 110 121 126 133 118 110 95 90 86 43 41 53 58 46 45 71 72 52 44 69 80 64 141 143 85 68 61 12 291 257 269 283 288 262 274 279 278 280 272 262 263 262 276 274 272 273 269 268 246 230 235 235 236 236 238 236 235 238 241 242 244 245 245 245 244 245 243 244 246 246 245 245 244 246 246 249 251 248 246 249 251 254
77 86 81 89 104 110 94 85 84 85 84 102 117 117 114 60 69 59 30 23 49 44 43 27 3 325 330 333 273 228 182 122 94 4 200 220 260 240 284 273 260 263 276 283 285 282 284 284 282 281 278 278 272 242 230 229 230 236 239 243 242 242 242 244 249 246 244 242 245 246 249 247 248 245 244 243 246 243 242 243 249 254 249 244 247 248 250
89 107 106 95 84 77 81 87 91 88 90 96 91 86 87 81 82 51 53 40 53 53 39 17 11 341 323 279 240 270 258 231 153 157 223 174 228 280 270 275 291 295 295 277 276 278 276 276 278 277 279 278 261 247 239 233 234 237 237 239 241 241 242 242 243 241 244 246 245 242 244 245 245 242 244 242 243 245 243 245 244 243 246 246 249 249 247
121 97 78 71 81 76 91 104 94 112 118 112 113 114 154 131 89 37 24 19 21 359 30 4 348 339 340 335 325 290 287 281 270 262 255 257 258 264 275 276 272 274 269 264 261 265 274 284 295 302 294 279 266 252 238 234 232 236 241 242 245 246 242 245 247 243 244 245 245 242 245 244 245 244 244 248 248 247 244 245 248 247 244 247 251 253 251
74 73 67 48 54 49 26 60 101 114 120 115 113 128 85 89 96 96 65 46 56 50 21 356 4 2 1 336 324 308 269 257 268 268 275 278 257 261 257 250 253 268 296 308 311 310 308 305 294 283 292 291 276 265 255 252 250 251 252 254 254 260 261 254 257 256 252 249 251 252 252 251 250 251 250 250 252 254 252 252 253 255 252 252 252 256 259
74 83 73 84 77 73 77 73 65 68 54 70 77 84 87 110 109 88 61 74 86 88 60 80 123 235 268 307 331 336 324 234 237 258 260 257 261 252 259 271 288 296 290 293 292 289 296 303 307 308 298 293 280 269 271 275 278 274 273 270 270 268 269 271 268 268 268 266 263 263 261 257 254 256 257 255 254 256 258 255 255 256 257 256 255 256 260